User: anonymous   Login
Location: Newark
(35.9031°N, 139.7175°E)
Time: 03:40:44
(UTC+00:00)
Language:

Vanguard 1 Rocket - Orbit

View from above orbital plane
View from above orbital plane
View from above satellite
View from above satellite

Ground track
Ground track

The orbit data is extracted from the following two-line orbital elements,

1    16U 58002A   20157.79933488 +.00000044 +00000-0 +46375-4 0  9995
2    16 034.2610 188.1859 2025154 188.6636 167.3098 10.48687086457617
Epoch (UTC): 05 June 2020 19:11:02
Eccentricity: 0.2025154
inclination: 34.2610°
perigee height: 653 km
apogee height: 4224 km
right ascension of ascending node: 188.1859°
argument of perigee: 188.6636°
revolutions per day: 10.48687086
mean anomaly at epoch: 167.3098°
orbit number at epoch: 45761

The dashed part of the orbit path shows where the satellite is in the earth's shadow,  

DLR